Time,TemperatureF,DewpointF,PressureIn,WindDirection,WindDirectionDegrees,WindSpeedMPH,WindSpeedGustMPH,Humidity,HourlyPrecipIn,Conditions,Clouds,dailyrainin,SoftwareType,DateUTC
2013-01-20 00:00:00,37.6,-7.3,30.36,East,99,0.0,4.5,14,0.00,,---,0.00,VWS V14.01,2013-01-20 08:00:00,
2013-01-20 00:20:00,37.9,-7.0,30.33,ESE,109,0.0,3.1,14,0.00,,---,0.00,VWS V14.01,2013-01-20 08:20:00,
2013-01-20 00:40:00,37.2,-7.6,30.33,SE,130,2.7,3.6,14,0.00,,---,0.00,VWS V14.01,2013-01-20 08:40:00,
2013-01-20 01:00:00,36.9,-7.9,30.33,ESE,114,0.0,4.0,14,0.00,,---,0.00,VWS V14.01,2013-01-20 09:00:00,
2013-01-20 01:20:00,37.0,-7.7,30.33,ESE,116,0.0,3.6,14,0.00,,---,0.00,VWS V14.01,2013-01-20 09:20:00,
2013-01-20 01:40:00,35.6,-8.9,30.33,ESE,102,0.0,4.0,14,0.00,,---,0.00,VWS V14.01,2013-01-20 09:40:00,
2013-01-20 02:00:00,35.6,-8.9,30.33,ESE,109,2.2,3.1,14,0.00,,---,0.00,VWS V14.01,2013-01-20 10:00:00,
2013-01-20 02:20:00,35.2,-7.8,30.33,East,79,0.0,3.6,15,0.00,,---,0.00,VWS V14.01,2013-01-20 10:20:00,
2013-01-20 02:40:00,36.3,-8.3,30.33,East,83,0.0,3.1,14,0.00,,---,0.00,VWS V14.01,2013-01-20 10:40:00,
2013-01-20 03:00:00,35.8,-8.7,30.33,SSE,147,0.0,3.1,14,0.00,,---,0.00,VWS V14.01,2013-01-20 11:00:00,
2013-01-20 03:20:00,35.2,-7.8,30.33,ESE,121,2.2,3.1,15,0.00,,---,0.00,VWS V14.01,2013-01-20 11:20:00,
2013-01-20 03:40:00,39.0,-6.1,30.33,ESE,112,6.7,6.7,14,0.00,,---,0.00,VWS V14.01,2013-01-20 11:40:00,
2013-01-20 04:00:00,39.0,-6.1,30.30,ENE,68,2.7,6.7,14,0.00,,---,0.00,VWS V14.01,2013-01-20 12:00:00,
2013-01-20 04:20:00,37.9,-7.0,30.33,ESE,120,2.2,4.0,14,0.00,,---,0.00,VWS V14.01,2013-01-20 12:20:00,
2013-01-20 04:40:00,37.9,-7.0,30.33,ESE,115,0.0,4.9,14,0.00,,---,0.00,VWS V14.01,2013-01-20 12:40:00,
2013-01-20 05:00:00,36.1,-8.4,30.30,East,92,0.0,3.6,14,0.00,,---,0.00,VWS V14.01,2013-01-20 13:00:00,
2013-01-20 05:20:00,39.2,-7.5,30.30,ENE,72,0.0,4.0,13,0.00,,---,0.00,VWS V14.01,2013-01-20 13:20:00,
2013-01-20 05:40:00,39.6,-7.2,30.33,ENE,59,0.0,4.0,13,0.00,,---,0.00,VWS V14.01,2013-01-20 13:40:00,
2013-01-20 06:00:00,38.8,-6.3,30.33,North,353,0.0,4.9,14,0.00,,---,0.00,VWS V14.01,2013-01-20 14:00:00,
2013-01-20 06:20:00,38.1,-6.9,30.33,NNE,24,0.0,4.5,14,0.00,,---,0.00,VWS V14.01,2013-01-20 14:20:00,
2013-01-20 06:40:00,38.8,-6.3,30.33,North,1,2.7,3.6,14,0.00,,---,0.00,VWS V14.01,2013-01-20 14:40:00,
2013-01-20 07:00:00,40.6,-6.4,30.30,North,357,3.1,4.0,13,0.00,,---,0.00,VWS V14.01,2013-01-20 15:00:00,
2013-01-20 07:20:00,45.3,-4.3,30.33,North,1,3.1,5.8,12,0.00,,---,0.00,VWS V14.01,2013-01-20 15:20:00,
2013-01-20 07:40:00,49.6,-2.7,30.33,North,357,2.2,4.0,11,0.00,,---,0.00,VWS V14.01,2013-01-20 15:40:00,
2013-01-20 08:00:00,53.1,3.5,30.33,North,357,4.0,6.3,13,0.00,,---,0.00,VWS V14.01,2013-01-20 16:00:00,
2013-01-20 08:20:00,55.4,3.7,30.33,ESE,110,0.0,5.8,12,0.00,,---,0.00,VWS V14.01,2013-01-20 16:20:00,
2013-01-20 08:40:00,58.3,5.9,30.33,ESE,121,2.7,5.8,12,0.00,,---,0.00,VWS V14.01,2013-01-20 16:40:00,
2013-01-20 09:00:00,58.3,5.9,30.33,North,8,3.6,7.6,12,0.00,,---,0.00,VWS V14.01,2013-01-20 17:00:00,
2013-01-20 09:20:00,58.5,6.1,30.33,NNE,31,4.9,8.1,12,0.00,,---,0.00,VWS V14.01,2013-01-20 17:20:00,
2013-01-20 09:40:00,58.1,5.8,30.33,NNW,337,5.8,8.1,12,0.00,,---,0.00,VWS V14.01,2013-01-20 17:40:00,
2013-01-20 10:00:00,58.6,6.2,30.33,NNE,14,2.7,8.7,12,0.00,,---,0.00,VWS V14.01,2013-01-20 18:00:00,
2013-01-20 10:19:00,60.3,7.5,30.36,ESE,123,2.7,7.6,12,0.00,,---,0.00,VWS V14.01,2013-01-20 18:19:00,
2013-01-20 10:40:00,63.9,8.4,30.33,ESE,119,4.9,8.1,11,0.00,,---,0.00,VWS V14.01,2013-01-20 18:40:00,
2013-01-20 11:00:00,66.4,8.2,30.33,East,93,3.1,8.3,10,0.00,,---,0.00,VWS V14.01,2013-01-20 19:00:00,
2013-01-20 11:20:00,68.9,10.1,30.33,East,89,3.1,8.1,10,0.00,,---,0.00,VWS V14.01,2013-01-20 19:20:00,
2013-01-20 11:39:00,70.2,8.7,30.33,NE,36,5.4,6.7,9,0.00,,---,0.00,VWS V14.01,2013-01-20 19:39:00,
2013-01-20 12:00:00,72.5,10.5,30.30,East,91,4.9,8.3,9,0.00,,---,0.00,VWS V14.01,2013-01-20 20:00:00,
2013-01-20 12:20:00,70.7,9.1,30.30,NNE,14,3.1,9.2,9,0.00,,---,0.00,VWS V14.01,2013-01-20 20:20:00,
2013-01-20 12:40:00,73.9,9.0,30.30,ESE,110,6.3,7.2,8,0.00,,---,0.00,VWS V14.01,2013-01-20 20:40:00,
2013-01-20 13:00:00,74.5,9.4,30.30,ESE,109,3.6,7.6,8,0.00,,---,0.00,VWS V14.01,2013-01-20 21:00:00,
2013-01-20 13:20:00,69.6,10.7,30.27,WNW,292,3.1,8.1,10,0.00,,---,0.00,VWS V14.01,2013-01-20 21:20:00,
2013-01-20 13:39:00,70.7,9.1,30.27,NNE,27,3.6,8.1,9,0.00,,---,0.00,VWS V14.01,2013-01-20 21:39:00,
2013-01-20 14:20:00,68.4,9.7,30.27,NNW,341,4.9,9.2,10,0.00,,---,0.00,VWS V14.01,2013-01-20 22:20:00,
2013-01-20 14:39:00,67.6,9.1,30.27,NW,320,4.9,8.7,10,0.00,,---,0.00,VWS V14.01,2013-01-20 22:39:00,
2013-01-20 14:59:00,66.2,8.1,30.27,NE,48,3.1,8.3,10,0.00,,---,0.00,VWS V14.01,2013-01-20 22:59:00,
2013-01-20 15:19:00,69.1,10.3,30.27,East,95,0.0,8.1,10,0.00,,---,0.00,VWS V14.01,2013-01-20 23:19:00,
2013-01-20 15:39:00,64.4,6.7,30.27,NNE,20,4.9,8.1,10,0.00,,---,0.00,VWS V14.01,2013-01-20 23:39:00,
2013-01-20 16:00:00,63.5,8.1,30.27,North,6,2.7,10.1,11,0.00,,---,0.00,VWS V14.01,2013-01-21 00:00:00,
2013-01-20 16:19:00,61.5,6.5,30.27,NNE,22,4.0,8.1,11,0.00,,---,0.00,VWS V14.01,2013-01-21 00:19:00,
2013-01-20 16:39:00,49.8,-2.6,30.27,North,9,2.2,6.3,11,0.00,,---,0.00,VWS V14.01,2013-01-21 00:39:00,
2013-01-20 17:00:00,46.0,-3.7,30.27,ESE,113,2.7,3.6,12,0.00,,---,0.00,VWS V14.01,2013-01-21 01:00:00,
2013-01-20 17:19:00,45.5,-4.2,30.27,NNW,346,2.7,5.8,12,0.00,,---,0.00,VWS V14.01,2013-01-21 01:19:00,
2013-01-20 17:39:00,44.4,-3.3,30.30,NNE,29,2.7,3.6,13,0.00,,---,0.00,VWS V14.01,2013-01-21 01:39:00,
2013-01-20 17:59:00,43.5,-4.1,30.30,NNE,27,2.2,6.3,13,0.00,,---,0.00,VWS V14.01,2013-01-21 01:59:00,
2013-01-20 18:19:00,41.7,-5.5,30.30,ENE,64,0.0,4.0,13,0.00,,---,0.00,VWS V14.01,2013-01-21 02:19:00,
2013-01-20 18:39:00,40.6,-6.4,30.30,NW,320,0.0,3.6,13,0.00,,---,0.00,VWS V14.01,2013-01-21 02:39:00,
2013-01-20 18:59:00,41.9,-5.3,30.30,NNE,28,0.0,4.0,13,0.00,,---,0.00,VWS V14.01,2013-01-21 02:59:00,
2013-01-20 19:19:00,43.3,-4.2,30.27,North,353,2.7,4.0,13,0.00,,---,0.00,VWS V14.01,2013-01-21 03:19:00,
2013-01-20 19:40:00,42.3,-5.1,30.30,NNE,17,2.7,5.8,13,0.00,,---,0.00,VWS V14.01,2013-01-21 03:40:00,
2013-01-20 19:59:00,43.3,-4.2,30.30,NNE,14,3.1,6.3,13,0.00,,---,0.00,VWS V14.01,2013-01-21 03:59:00,
2013-01-20 20:19:00,41.2,-5.9,30.33,North,8,0.0,6.3,13,0.00,,---,0.00,VWS V14.01,2013-01-21 04:19:00,
2013-01-20 20:39:00,41.7,-5.5,30.30,North,7,2.7,5.4,13,0.00,,---,0.00,VWS V14.01,2013-01-21 04:39:00,
2013-01-20 20:59:00,41.2,-5.9,30.30,North,4,0.0,4.0,13,0.00,,---,0.00,VWS V14.01,2013-01-21 04:59:00,
2013-01-20 21:19:00,41.4,-5.8,30.30,NNE,12,0.0,3.6,13,0.00,,---,0.00,VWS V14.01,2013-01-21 05:19:00,
2013-01-20 21:39:00,39.2,-7.5,30.30,South,174,0.0,3.6,13,0.00,,---,0.00,VWS V14.01,2013-01-21 05:39:00,
2013-01-20 21:59:00,38.5,-6.6,30.30,ENE,73,0.0,3.6,14,0.00,,---,0.00,VWS V14.01,2013-01-21 05:59:00,
2013-01-20 22:19:00,34.3,-8.5,30.30,SSW,199,0.0,2.7,15,0.00,,---,0.00,VWS V14.01,2013-01-21 06:19:00,
2013-01-20 22:39:00,35.1,-7.9,30.30,SSW,199,0.0,2.7,15,0.00,,---,0.00,VWS V14.01,2013-01-21 06:39:00,
2013-01-20 22:59:00,37.2,-7.6,30.30,North,353,0.0,4.9,14,0.00,,---,0.00,VWS V14.01,2013-01-21 06:59:00,
2013-01-20 23:19:00,38.8,-6.3,30.30,North,5,2.2,4.0,14,0.00,,---,0.00,VWS V14.01,2013-01-21 07:19:00,
2013-01-20 23:39:00,42.1,-5.2,30.30,NNE,15,4.0,5.8,13,0.00,,---,0.00,VWS V14.01,2013-01-21 07:39:00,
2013-01-20 23:59:00,45.5,-4.2,30.30,NNE,24,3.1,8.3,12,0.00,,---,0.00,VWS V14.01,2013-01-21 07:59:00,